Retour au catalogue

SL-24 R/B

ActifPO
NORAD 33319·ROCKET BODY·🇷🇺 Russia

Lancé Aug 29, 2008 depuis Baikonur Cosmodrome

Loading…

Prochains Passages (prochaines 24 heures)

TLE

FraisSource: Space-Track

Époque: Sep 14, 2026, 07:10 UTC

1 33319U 08040H   26257.29888214  .00000047  00000-0  33718-4 0  9992
2 33319  97.9270  89.2916 0494274 124.4073  44.4384 13.75817084905567

Suivez SL-24 R/B en temps réel avec AllMySat

Download on the App Store